Terminal Aerodrome Forecast
Issued by NWS Oklahoma City, OK

Home | Current Version | Previous Version | Text Only | Print | Product List | Glossary On
Versions: 1 2 3 4 5 6 7 8 9 10 11 12 13 14 15 16 17 18 19 20 21 22 23
000
FTUS44 KOUN 302334
TAFOUN
TAF
KOUN 302334Z 3100/3124 06007KT P6SM OVC110
     FM310900 15009KT P6SM OVC070
     FM311300 15012KT 5SM -RA OVC025
     FM311600 16014KT 3SM -RA BR OVC008=

USA.gov is the U.S. government's official web portal to all federal, state and local government web resources and services.